Location: Paddlesworth
(51.1000°N, 1.1333°E)
Time: 20:47:24
(UTC+00:00)

ERS-1 Rocket - Pass Details

Date: 11 May 2021
Orbit: 753 x 757 km, 98.4° (Epoch: 21 June)

Event Time Altitude Azimuth Distance (km) Brightness Sun altitude
Exits shadow 20:30:20 10° 129° (SE) 2,294 4.8 -8.0°
Reaches altitude 10° 20:30:23 10° 129° (SE) 2,280 4.8 -8.0°
Maximum altitude 20:34:56 36° 64° (ENE) 1,186 3.8 -8.5°
Drops below altitude 10° 20:39:31 10° 359° (N) 2,296 6.2 -9.0°
Sets 20:41:58 0° 351° (N) 3,226 7.2 -9.3°
